Showing default

INTELSAT 2-F1, 2514

Orbit data source: Space-Track

INTELSAT 2-F1, 2514 is a payload satellite owned by INTELSAT (US) in HEO that was launched on Wed, 26 Oct 1966 UTC via a THOR DELTA E1 launch vehicle from the Air Force Eastern Test Range (AFETR). Payload-class satellites include a variety of spacecraft equipped with specific instruments for various scientific and technological missions. These include communications satellites like Starlink; space stations such as the ISS; scientific satellites like the Hubble; Earth observation satellites from companies like Planet Labs, Umbra, and HawkEye 360; GPS; miniature CubeSats for education and research; and military/defense satellites.

Loading next visibility...
Identifier
2514, 1966-096A
Orbit
HEO
Country
Flag of USUS / ITSO
Related business
Manufacturer
Hughes
Mission
Non-operational spacecraft
Bus & Motor
HS-303, SVM-1
Mass
162 kg wet, 64 kg dry
Launch date (UTC)
1966-10-26 (60 years ago)
Launch vehicle
THOR DELTA E1
Launch site
Air Force Eastern Test Range (AFETR)
Object type
Payload
Rocket body
Debris
Shape & HBR
CYL, 1.1 m
Radar Cross Section
Large (>1 m²)

Expand to show TLE details & history
Last TLE update: 1 day ago

TLE from 1 day ago
0 INTELSAT 2-F1
1  2514U 66096A   26253.39873005 -.00000210  00000-0  00000+0 0  9995
2  2514  18.2977  39.7025 6388487 210.3010  88.5976  2.00315118 96521
Epoch: 2026-09-10T09:34Z
TLE epoch observation values (Epoch: 2026-09-10T09:34:10.276Z)
Latitude
-0.00002°
Longitude
-93.29562°
Altitude
28,726.254 km
Speed
2.778 km/s
True Right ascension
02h 38m 44s
True Declination
0° 00' 00"
Sunlit
Object was in daylight at epoch
Visualization orbit readout
Latitude
Unknown
Longitude
Unknown
Altitude
Unknown
Speed
Unknown
Apparent Right ascension
Unknown
Apparent Declination
Unknown
Sunlit
N/A
Visualization observer readout
Local Sidereal Time
06:44:49
Azimuth
Unknown
Elevation
Unknown
Doppler factor
Unknown
Orbital elements
Apogee altitude
37,191.353 km
Perigee altitude
3,223.224 km
Semi-major axis
26,585.425 km
Eccentricity
0.63885
Inclination
18.2977°
RAAN
39.7025°
Arg. of periapsis
210.301°
True anomaly
149.8021°
Mean anomaly
88.5976°
Eccentric anomaly
120.22493°
Mean motion
0.5007 °/min
Orbital period
718.99 mins
BSTAR
0
Loading maneuver chart data...
Computing Atmospheric mass density...
Loading historical data...
Loading historical data...
Loading historical data...
Loading historical data...
Loading historical data...
Loading historical data...
Loading historical data...
Other satellites on launch #96 in the year 1966 (1966-10-26 UTC)

Documentation

Showing up to 5 results
|